Regional Weather Roundup
Issued by NWS

Home | Current Version | Previous Version | Graphics & Text | Print | Product List | Glossary On
Versions: 1 2 3 4 5 6 7 8 9 10 11 12 13 14 15 16 17 18 19 20 21 22 23 24 25 26 27 28 29 30 31 32 33 34 35 36 37 38 39 40 41 42 43 44 45 46 47 48 49 50
000
ASUS45 KBOU 300607
RWRCO

WEATHER ROUNDUP FOR COLORADO
NATIONAL WEATHER SERVICE DENVER/BOULDER CO
1200 AM MDT SAT AUG 30 2014

NOTE: "FAIR" INDICATES FEW OR NO CLOUDS BELOW 12000 FEET WITH NO
SIGNIFICANT WEATHER AND/OR OBSTRUCTIONS TO VISIBILITY.

COZ001>005-013-030-031-300700-
...NORTHWEST COLORADO...

CITY           SKY/WX    TMP DP  RH WIND       PRES   REMARKS
CRAIG          CLEAR     54  49  83 CALM      30.19F
HAYDEN         CLEAR     55  45  67 E7        30.22S
MEEKER         CLEAR     54  46  74 SE5       30.22F
MOUNT WERNER   NOT AVBL
STEAMBOAT SPGS CLEAR     53  46  77 CALM      30.24S
WALDEN         PTCLDY    45  37  76 SE8       30.31S
$$

COZ006>008-011-300700-
...WEST CENTRAL VALLEYS...

CITY           SKY/WX    TMP DP  RH WIND       PRES   REMARKS
GRAND JUNCTION PTCLDY    62  51  67 SE6       30.09F
MONTROSE       CLEAR     62  46  55 SE12      30.20S
EAGLE          CLEAR     52  46  82 SE5       30.28R
RIFLE          PTCLDY    59  48  67 SE8       30.17S
DELTA          CLEAR     64  49  58 NE6       30.15S
NUCLA          CLEAR     61  45  55 E8        30.22S
$$

COZ017>023-064>068-300700-
...SOUTHWEST COLORADO...

CITY           SKY/WX    TMP DP  RH WIND       PRES   REMARKS
DURANGO        CLEAR     59  41  51 CALM      30.21S
CORTEZ         CLEAR     54  46  74 E3        30.18S
PAGOSA SPRINGS CLEAR     54  36  50 CALM      30.30S
TELLURIDE      CLEAR     52  39  62 SE5       30.40S
WOLF CREEK PAS PTCLDY    41  34  75 NE14      30.59S
$$

COZ009-010-012-014-032>034-037-058>063-300700-
...CENTRAL COLORADO...

CITY           SKY/WX    TMP DP  RH WIND       PRES   REMARKS
ASPEN          CLEAR     50  41  71 S6        30.32F
BUENA VISTA    CLEAR     46  40  81 CALM      30.37S
COPPER MTN     MOCLDY    45  32  61 S9G17     30.59S
BERTHOUD PASS  FAIR      37  36  93 NW18      30.60F
COTTONWOOD PAS CLEAR     50  37  62 CALM      30.47S
GUNNISON       CLEAR     48  39  71 CALM      30.35S
KREMMLING      PTCLDY    46  43  87 CALM      30.33R
LEADVILLE      CLEAR     37  34  89 NE3       30.46S
MONARCH PASS   CLEAR     43  28  56 SW5       30.69S
SALIDA         CLEAR     51  44  75 W6        30.42S
SUNLIGHT       CLEAR     50  39  66 CALM      30.52F
WILKERSON PASS NOT AVBL
$$

COZ069>075-300700-
...SAN LUIS VALLEY/SANGRE DE CRISTO MOUNTAINS...

CITY           SKY/WX    TMP DP  RH WIND       PRES   REMARKS
ALAMOSA        CLOUDY    57  43  59 E14       30.32S
LA VETA PASS   NOT AVBL
SAGUACHE       NOT AVBL
$$

COZ035-036-038>040-300700-
...NORTHERN COLORADO FRONT RANGE...

CITY           SKY/WX    TMP DP  RH WIND       PRES   REMARKS
DENVER INTL AP MOCLDY    61  47  59 SW8       30.15R
DMNS CITY PARK   N/A     59  47  65 S3        30.14F
AURORA         PTCLDY    59  46  63 SW9       30.17F
FRONT RANGE AP MOCLDY    61  50  67 S7        30.16S
ERIE MUNI ARPT PTCLDY    58  49  71 CALM      30.13S
BOULDER MUN AP NOT AVBL
CENTENNIAL     PTCLDY    60  44  55 S12       30.17F
BROOMFIELD     PTCLDY    59  45  58 W7        30.16F
FORT COLLINS   PTCLDY    57  52  82 NW8       30.14S
LONGMONT       PTCLDY    56  50  78 S3        30.14F
$$

COZ041-046-047-076>085-087-088-300700-
...PIKES PEAK/PALMER DIVIDE AND SOUTHERN FOOTHILLS...

CITY           SKY/WX    TMP DP  RH WIND       PRES   REMARKS
COLO. SPRINGS  MOCLDY    58  47  66 N7        30.22F
A. F. ACADEMY  PTCLDY    51  48  89 N9        30.24F
ELLICOTT       MOCLDY    57  50  77 CALM      30.21F
FALCON         MOCLDY    54  47  76 W9        30.26F
FORT CARSON    MOCLDY    59  47  64 NW8       30.19F
LIMON          MOCLDY    56  51  84 N5        30.19R
MONUMENT HILL  PTCLDY    50  43  76 SW8       30.26S
TRINIDAD       MOCLDY    62  46  55 W7        30.26F
$$

COZ042>045-048>051-090-091-300700-
...NORTHEAST COLORADO...

CITY           SKY/WX    TMP DP  RH WIND       PRES   REMARKS
GREELEY ARPT   MOCLDY    54  46  76 NW5       30.13R
AKRON          CLOUDY    61  52  72 CALM      30.14R
BURLINGTON     MOCLDY    61  55  81 CALM      30.11R
WRAY             N/A     65  57  76 NE3       30.09S
STERLING       CLOUDY    63  57  82 CALM      30.10R
HOLYOKE        MOCLDY    63  57  82 CALM      30.09S
FORT MORGAN    CLOUDY    58  51  77 CALM      30.13S
$$

COZ086-089-092>099-300700-
...SOUTHEAST COLORADO...

CITY           SKY/WX    TMP DP  RH WIND       PRES   REMARKS
PUEBLO         LGT RAIN  66  51  58 NE7       30.14F
LA JUNTA       CLOUDY    65  56  72 W13       30.11S
LAMAR          CLOUDY    68  54  60 SW12      30.07R
SPRINGFIELD      N/A     62  51  67 W5        30.15R
$$


USA.gov is the U.S. government's official web portal to all federal, state and local government web resources and services.